Regional Weather Roundup
Issued by NWS Albany, NY

Home | Current Version | Previous Version | Text Only | Print | Product List | Glossary On
Versions: 1 2 3 4 5 6 7 8 9 10 11 12 13 14 15 16 17 18 19 20 21 22 23 24 25 26 27 28 29 30 31 32 33 34 35 36 37 38 39 40 41 42 43 44 45 46 47 48 49 50
000
ASUS41 KALY 300610
RWRALY

NEW YORK STATE HOURLY WEATHER ROUNDUP
NATIONAL WEATHER SERVICE ALBANY NY
200 AM EDT THU JUL 30 2015

NOTE: "FAIR" INDICATES FEW OR NO CLOUDS BELOW 12,000 FEET WITH NO
SIGNIFICANT WEATHER AND/OR NO OBSTRUCTIONS TO VISIBILITY.

NYZ032-033-038>043-046>054-057>066-NYZ062>081-300700-
EAST


CITY           SKY/WX    TMP DP  RH WIND       PRES   REMARKS
ALBANY         PTCLDY    74  66  76 S5        29.89S
GLENS FALLS    PTCLDY    68  65  90 CALM      29.88S
POUGHKEEPSIE   CLEAR     70  67  90 SE5       29.90F
NEWBURGH       CLEAR     77  68  73 CALM      29.94
MONTGOMERY     CLEAR     72  68  87 SW7       29.92F
WHITE PLAINS   CLEAR     76  71  85 W3        29.93F
ISLIP          CLEAR     77  72  84 SW9       29.92S
NEW YORK CITY  PTCLDY    82  71  69 SW10      29.92S
CENTRAL PARK   CLEAR     82  70  66 VRB7      29.96S
$$

NYZ005>009-017-018-044>046-055-056-300700-
CENTRAL


CITY           SKY/WX    TMP DP  RH WIND       PRES   REMARKS
FULTON         PTCLDY    73  65  75 VRB3      29.84F
SYRACUSE       PTCLDY    79  67  66 S8        29.84F
ROME           PTCLDY    72  65  78 E5        29.88F
ELMIRA         MOCLDY    69  67  93 CALM      29.90F
BINGHAMTON     PTCLDY    72  65  78 S6        29.95F
MONTICELLO     CLEAR     66  64  94 CALM      29.99S
$$

NYZ026>034-041>043-300700-
NORTH


CITY           SKY/WX    TMP DP  RH WIND       PRES   REMARKS
WATERTOWN      PTCLDY    75  63  66 S6        29.81F
FORT DRUM      NOT AVBL
MASSENA        CLEAR     67  63  87 CALM      29.81F
SARANAC LAKE   CLEAR     60  59  96 CALM      29.91F
PLATTSBURGH    PTCLDY    67  67 100 CALM      29.84F FOG
$$

NYZ001>004-010>016-019>021-300700-
WEST


CITY           SKY/WX    TMP DP  RH WIND       PRES   REMARKS
NIAGARA FALLS  CLOUDY    77  69  76 SW9       29.82F
BUFFALO        CLOUDY    76  66  71 SW6       29.84F
DUNKIRK        CLOUDY    77  67  71 SW8       29.86F
JAMESTOWN      CLOUDY    73  66  78 SW6       29.94S
WELLSVILLE     MOCLDY    75  67  76 SW6       29.97F
ROCHESTER      CLOUDY    75  67  76 SW6       29.84F
PENN YAN       PTCLDY    75  69  81 SW8       29.89F
$$

             KEY
       WCI = WIND CHILL INDEX
       VSB = VISIBILITY
       HX  = HEAT INDEX
$$



USA.gov is the U.S. government's official web portal to all federal, state and local government web resources and services.